Regional Weather Roundup
Issued by NWS Green Bay, WI

Home | Current Version | Previous Version | Graphics & Text | Print | Product List | Glossary Off
Versions: 1 2 3 4 5 6 7 8 9 10 11 12 13 14 15 16 17 18 19 20 21 22 23 24 25 26 27 28 29 30 31 32 33 34 35 36 37 38 39 40 41 42 43 44 45 46 47 48 49 50

000
ASUS43 KGRB 031010
RWRGRB

NORTH-CENTRAL AND NORTHEAST WISCONSIN REGIONAL WEATHER ROUNDUP
NATIONAL WEATHER SERVICE GREEN BAY WI
400 AM CST TUE MAR 03 2015

WIZ005-009-010>012-018-019-031100-
NORTH CENTRAL WISCONSIN

CITY           SKY/WX    TMP DP  RH WIND       PRES   REMARKS
IRONWOOD       CLOUDY    19  12  73 S12       29.85F WCI   7
MANITOWISH WTR LGT SNOW  17  13  85 S7        29.87F WCI   8
ARBOR VITAE    LGT SNOW  19  15  83 S7        29.88F
EAGLE RIVER    FLURRIES  19  10  68 S5        29.89F
LAND O LAKES   LGT SNOW  19  13  79 S7        29.89F WCI   9
RHINELANDER    LGT SNOW  18  14  84 S5        29.90F FOG
PHILLIPS       FLURRIES  18  15  87 S6        29.88F WCI  10
ANTIGO         CLOUDY    19  16  89 SE6       29.92F
TOMAHAWK       CLOUDY    19  15  84 CALM      29.90F
MERRILL        CLOUDY    20  17  87 S5        29.91F
$$

WIZ013-073-031100-
NORTHEAST WISCONSIN

CITY           SKY/WX    TMP DP  RH WIND       PRES   REMARKS
IRON MOUNTAIN  CLOUDY    19  10  68 S6        29.95F
MARINETTE      CLOUDY    21  18  86 SW8       30.02F
OCONTO         CLOUDY    22  21  97 SE5       30.01F
$$

WIZ017-030-035>037-045-031100-
CENTRAL WISCONSIN

CITY           SKY/WX    TMP DP  RH WIND       PRES   REMARKS
MEDFORD        CLOUDY    19  15  84 SE8       29.88F WCI   9
WAUSAU         CLOUDY    20  15  81 SE7       29.91F
MOSINEE        CLOUDY    21  18  86 SE8       29.93F
MARSHFIELD     CLOUDY    22  13  68 SE9       29.91F
WISC RAPIDS    CLOUDY    22  13  68 SE8       29.96F
STEVENS POINT  CLOUDY    20  14  79 SE8       29.95F WCI  10
WAUPACA        CLOUDY    24  18  77 SE7       29.98F
SHAWANO        CLOUDY    23  20  86 SE3       29.99F
CLINTONVILLE   CLOUDY    23  19  86 SE5       29.98F
$$

WIZ038-039-048-051-031100-
FOX VALLEY

CITY           SKY/WX    TMP DP  RH WIND       PRES   REMARKS
NWS GREEN BAY  CLOUDY    23  20  88 SE8       30.01F
APPLETON       CLOUDY    23  18  80 SE9       29.99F
OSHKOSH        CLOUDY    24  16  71 SE8       29.99F
FOND DU LAC    CLOUDY    24  15  68 SE9       29.99F
$$

WIZ022-050-052-031100-
EAST CENTRAL WISCONSIN

CITY           SKY/WX    TMP DP  RH WIND       PRES   REMARKS
STURGEON BAY   CLOUDY    21  18  86 S7        30.05F
MANITOWOC      CLOUDY    24  22  91 S5        30.04F
SHEBOYGAN      CLOUDY    24  17  74 SE3       30.03F
$$

LMZ563-521-522-541>543-031100-
LAKESHORE

STATION/POSITION TIME  TEMP    WIND        PRES    VSBY  WAVE
                       AIR SEA DIR/SP/G                  HT/PER
                 (UTC) (F)     (DEG/KT/KT) (MB)    (MI)  (FT/S)
SHEBOYGAN LKSHOR 1000   28     150/ 15/ 17 1018.0F
KEWAUNEE LKSHORE 1000                      1017.0F
NORTHPORT PIER   1000   25     170/  7/ 11 1017.6F
SISTER BAY LKSHO 1000   24     200/ 14/ 15   N/A
CHAMBERS ISLAND  1000   22     170/  4/ 12 1017.6F
MENOMINEE LKSHOR 1000                      1017.7F
$$



USA.gov is the U.S. government's official web portal to all federal, state and local government web resources and services.